Flag for Russia Weather past 2 weeks in Gelendzhik, Russia

Now
79 °F

Scattered clouds.


Feels Like: 81 °F
Forecast: 64 / 83 °F
Wind: 10 mph from Southwest

Location: Anapa / Vitiazevo

Current Time: Jul 6, 2015 at 12:48:00 PM

Latest Report: Jul 6, 2015 at 12:30 PM


Visibility: N/A

Pressure: 29.95 "Hg

Humidity: 74%

Dew point: 70 °F

Location of GelendzhikLocation

Historic Weather in Gelendzhik — Graph

°F

Gelendzhik temperature yesterday

Maximum temperature yesterday: 79 °F (at 11:30 AM)
Minimum temperature yesterday: 68 °F (at 9:00 PM)
Average temperature yesterday: 74 °F

Past Weeks' High & Low Weather Summary

 TemperatureHumidityPressure
High86 °F (Jun 23, 1:00 PM)100% (Jun 24, 3:00 AM)30.12 "Hg (Jun 24, 3:00 AM)
Low55 °F (Jun 29, 5:00 AM)43% (Jun 23, 1:00 PM)29.59 "Hg (Jun 25, 11:00 PM)
Average72 °F78%29.88 "Hg
* Reported Jun 21 11:00 AM — Jul 6 11:30 AM, Gelendzhik, Weather by CustomWeather, © 2015

Note: Actual official high and low records may vary slightly from our data, if they occured in-between our weather recording intervals... More about our weather records

Advertising

Gelendzhik weather history for previous 24 hours

 ConditionsComfort  
Time TempWeatherWind HumidityBarometerVisibility
11:30 AM
Mon, Jul 6
79 °FScattered clouds.10 mph79%29.95 "HgN/A
11:00 AM77 °FScattered clouds.10 mph79%29.95 "HgN/A
10:30 AM79 °FScattered clouds.8 mph74%29.95 "HgN/A
10:00 AM77 °FScattered clouds.8 mph79%29.95 "HgN/A
9:30 AM77 °FScattered clouds.8 mph79%29.92 "HgN/A
9:00 AM75 °FScattered clouds.8 mph83%29.95 "HgN/A
8:30 AM75 °FScattered clouds.6 mph83%29.92 "HgN/A
8:00 AM75 °FPassing clouds.6 mph83%29.92 "HgN/A
7:30 AM73 °FSunny.8 mph89%29.92 "Hg10 mi
7:00 AM72 °FSunny.6 mph88%29.92 "Hg10 mi
6:30 AM70 °FPassing clouds.3 mph94%29.92 "HgN/A
6:00 AM68 °FPassing clouds.6 mph94%29.92 "HgN/A
5:30 AM66 °FPassing clouds.6 mph94%29.92 "HgN/A
5:00 AM66 °FPassing clouds.6 mph94%29.92 "HgN/A
4:00 AM64 °FFog.3 mph100%29.92 "Hg6 mi
3:00 AM64 °FPassing clouds.3 mph94%29.92 "Hg4 mi
2:00 AM66 °FFog.3 mph94%29.92 "Hg5 mi
1:00 AM66 °FFog.6 mph94%29.92 "Hg3 mi
12:00 AM66 °FFog.3 mph94%29.92 "Hg6 mi
11:30 PM
Sun, Jul 5
70 °FPassing clouds.3 mph94%29.95 "HgN/A
11:00 PM68 °FPassing clouds.3 mph94%29.95 "HgN/A
10:30 PM68 °FPassing clouds.3 mph94%29.95 "HgN/A
10:00 PM70 °FPassing clouds.6 mph88%29.95 "HgN/A
9:30 PM68 °FPassing clouds.3 mph94%29.95 "HgN/A
9:00 PM68 °FSunny.6 mph94%29.95 "Hg10 mi
8:30 PM70 °FSunny.6 mph88%29.95 "Hg10 mi
8:00 PM72 °FSunny.3 mph88%29.92 "Hg10 mi
7:30 PM73 °FSunny.6 mph83%29.95 "Hg10 mi
7:00 PM75 °FScattered clouds.8 mph78%29.95 "HgN/A
6:30 PM75 °FScattered clouds.8 mph78%29.95 "HgN/A
6:00 PM75 °FScattered clouds.8 mph78%29.95 "HgN/A
5:30 PM77 °FScattered clouds.10 mph74%29.92 "HgN/A
5:00 PM77 °FScattered clouds.10 mph79%29.95 "HgN/A
4:30 PM77 °FScattered clouds.10 mph79%29.95 "HgN/A
4:00 PM77 °FScattered clouds.13 mph79%29.95 "HgN/A
3:30 PM79 °FScattered clouds.13 mph74%29.95 "HgN/A
3:00 PM79 °FScattered clouds.10 mph74%29.95 "HgN/A
2:30 PM79 °FScattered clouds.10 mph74%29.95 "HgN/A
2:00 PM79 °FScattered clouds.10 mph79%29.95 "HgN/A
1:30 PM79 °FScattered clouds.10 mph79%29.95 "HgN/A
1:00 PM79 °FScattered clouds.13 mph74%29.95 "HgN/A
12:30 PM79 °FScattered clouds.10 mph74%29.95 "HgN/A
12:00 PM79 °FBroken clouds.10 mph74%29.95 "HgN/A
Weather by CustomWeather, © 2015

See weather overviewHow to use our weather pages